[[{"header":{"parameterUnit":"m.s-1","parameterCategory":1,"la1":30.2991,"la2":30.254,"lo1":-89.0895,"lo2":-89.0444,"dy":0.0017,"dx":0.0017,"nx":28,"ny":28,"refTime":"2024-11-26T09:00:00:Z","depth":0,"parameterNumber":2,"parameterNumberName":"U-component_of_WINDS"},"data":[0,0,0,0,0,0,0,0,0,0,0,0,0,0,0,0,0,0,0,0,0,0,0,0,0,0,0,0,0,0,0,0,0,0,0,0,0,0,0,0,0,0,0,0,0,0,0,0,0,0,0,0,0,0,0,0,0,0,-0.6651,-0.6651,0,-0.6634,-0.6634,-0.6633,-0.6613,-0.6612,-0.6612,-0.6612,-0.6595,-0.6595,-0.6595,0,0,0,0,0,0,0,0,0,0,0,0,0,-0.6668,-0.6667,-0.6651,-0.6651,-0.6651,-0.6634,-0.6634,-0.6633,-0.6613,-0.6612,-0.6612,-0.6611,-0.6595,-0.6595,-0.6595,0,0,0,0,0,0,0,0,0,0,0,0,0,-0.6656,-0.6667,-0.6651,-0.6638,-0.6637,-0.6634,-0.6634,-0.6633,-0.6613,-0.6612,-0.6612,-0.6611,-0.6595,-0.6595,-0.6595,-0.6603,0,0,-0.6594,-0.6594,0,0,0,0,0,0,0,0,-0.6657,-0.6656,-0.664,-0.6639,-0.6638,-0.6625,-0.6633,-0.6623,-0.6613,-0.6622,-0.6612,-0.6611,-0.6605,-0.6604,-0.6602,-0.6603,-0.6602,-0.6594,-0.6594,-0.6594,-0.6594,0,0,0,0,0,0,0,-0.6658,-0.6657,-0.6644,-0.664,-0.6639,-0.6634,-0.6632,-0.6631,-0.6617,-0.6621,-0.662,-0.6618,-0.6605,-0.6603,-0.6602,-0.6602,-0.6594,-0.6594,-0.6594,-0.6594,-0.6609,-0.6609,0,0,0,0,0,0,-0.666,-0.6657,-0.6645,-0.6644,-0.6646,-0.6634,-0.6632,-0.6629,-0.6617,-0.6614,-0.6618,-0.6617,-0.6603,-0.6602,-0.6601,-0.661,-0.6594,-0.6594,-0.6594,-0.6608,-0.6609,-0.6609,0,0,0,0,0,0,-0.6661,-0.666,-0.6646,-0.665,-0.6648,-0.6634,-0.6632,-0.6629,-0.6627,-0.6614,-0.6612,-0.6619,-0.6603,-0.6601,-0.6603,-0.6609,-0.6594,-0.6594,-0.6607,-0.6608,-0.6609,-0.6629,0,0,0,0,0,0,-0.6661,-0.666,-0.6663,-0.665,-0.6648,-0.6647,-0.6632,-0.6629,-0.6627,-0.6625,-0.6614,-0.6612,-0.6602,-0.6603,-0.6603,-0.6609,-0.6593,-0.6607,-0.6608,-0.6609,-0.6628,-0.663,-0.6633,0,0,0,0,0,-0.6662,-0.6669,-0.6663,-0.6661,-0.6651,-0.6648,-0.6646,-0.6635,-0.6627,-0.663,-0.6622,-0.6612,-0.6609,-0.6604,-0.6603,-0.6609,-0.6606,-0.6608,-0.6609,-0.6627,-0.663,-0.6633,0,0,0,0,0,0,-0.6683,-0.6667,-0.666,-0.6663,-0.6657,-0.6644,-0.6648,-0.6639,-0.6634,-0.6633,-0.6619,-0.6617,-0.662,-0.6615,-0.6609,-0.6617,-0.6606,-0.6607,-0.662,-0.6623,-0.6626,-0.6627,-0.6593,0,0,0,0,0,-0.6688,-0.6686,-0.6673,-0.6677,-0.6674,-0.6662,-0.666,-0.6651,-0.6644,-0.6642,-0.6634,-0.6628,-0.6625,-0.6624,-0.6621,-0.6627,-0.6624,-0.6631,-0.6633,-0.6635,-0.6636,-0.6639,-0.6642,-0.6613,-0.6613,-0.6613,0,0,-0.6698,-0.6689,-0.6689,-0.6681,-0.6675,-0.6674,-0.6659,-0.6659,-0.6658,-0.6642,-0.6642,-0.6637,-0.6629,-0.6633,-0.6634,-0.6628,-0.6644,-0.6637,-0.6639,-0.6638,-0.6641,-0.6643,-0.6646,-0.6614,-0.6614,-0.6614,0,0,-0.6716,-0.671,-0.6712,-0.6707,-0.6698,-0.6689,-0.669,-0.6679,-0.6674,-0.6674,-0.6662,-0.6661,-0.6657,-0.6652,-0.6649,-0.6666,-0.6657,-0.6666,-0.6678,-0.6681,-0.6684,-0.6686,-0.6692,-0.6694,-0.6667,-0.6667,-0.6667,0,-0.673,-0.6728,-0.6715,-0.6715,-0.6712,-0.6697,-0.67,-0.6695,-0.6686,-0.6684,-0.6678,-0.6673,-0.6667,-0.6669,-0.6673,-0.6671,-0.6672,-0.6667,-0.6684,-0.6686,-0.6688,-0.6693,-0.6696,-0.6668,-0.6668,-0.6668,-0.6667,0,-0.6746,-0.6744,-0.6747,-0.6738,-0.6736,-0.6737,-0.6725,-0.6724,-0.6716,-0.6708,-0.6709,-0.6701,-0.6697,-0.6697,-0.6689,-0.6698,-0.6695,-0.6687,-0.6676,-0.6692,-0.6697,-0.6699,-0.6669,-0.6669,-0.6669,-0.6668,0,0,-0.6776,-0.676,-0.6761,-0.6757,-0.6746,-0.6745,-0.6747,-0.6741,-0.6741,-0.6735,-0.6736,-0.6733,-0.6725,-0.6722,-0.6714,-0.6716,-0.673,-0.6708,-0.6707,-0.6712,-0.674,-0.6746,-0.6749,-0.6724,-0.6724,-0.6725,-0.674,0,-0.6792,-0.6793,-0.6781,-0.6785,-0.6784,-0.6769,-0.677,-0.6764,-0.6757,-0.6755,-0.6748,-0.6746,-0.6736,-0.6734,-0.6736,-0.6728,-0.6735,-0.6727,-0.6725,-0.6725,-0.6727,-0.6751,-0.6758,-0.6773,-0.6742,-0.6743,-0.6743,0,-0.6811,-0.6806,-0.681,-0.6799,-0.6798,-0.6799,-0.6793,-0.6792,-0.6784,-0.6779,-0.6775,-0.6766,-0.6767,-0.6756,-0.6757,-0.6752,-0.675,-0.6746,-0.6747,-0.6746,-0.6735,-0.6751,-0.6778,-0.678,-0.6746,-0.6746,-0.6745,0,-0.6833,-0.6827,-0.6828,-0.6825,-0.6813,-0.6814,-0.6809,-0.6801,-0.6799,-0.6794,-0.6793,-0.6788,-0.6786,-0.6783,-0.6773,-0.6766,-0.6775,-0.6764,-0.6771,-0.6771,-0.6773,-0.6773,-0.68,-0.6773,-0.6773,-0.6773,-0.6773,0,-0.6852,-0.6855,-0.6838,-0.6839,-0.6842,-0.6829,-0.6832,-0.6826,-0.6819,-0.6819,-0.6806,-0.6806,-0.6793,-0.6791,-0.6783,-0.6785,-0.6785,-0.6781,-0.6778,-0.6782,-0.6782,-0.678,-0.6779,-0.6773,-0.6773,-0.6773,-0.6773,0,-0.6877,-0.6866,-0.6866,-0.6854,-0.6851,-0.6854,-0.6844,-0.6844,-0.6837,-0.6836,-0.6836,-0.6824,-0.6821,-0.6811,-0.6806,-0.6801,-0.6806,-0.6802,-0.6808,-0.6807,-0.6814,-0.6814,-0.6841,-0.6844,-0.6815,-0.6815,-0.6815,0,-0.689,-0.6892,-0.688,-0.6878,-0.6874,-0.6872,-0.6869,-0.6857,-0.6855,-0.6847,-0.6848,-0.6845,-0.6842,-0.6839,-0.683,-0.6827,-0.6822,-0.6832,-0.6822,-0.6825,-0.6822,-0.6822,-0.6822,-0.6834,-0.6834,-0.6835,-0.6835,0,-0.6914,-0.6908,-0.6905,-0.69,-0.6897,-0.6893,-0.6887,-0.6887,-0.6873,-0.6872,-0.6869,-0.6867,-0.6862,-0.6859,-0.6854,-0.6849,-0.684,-0.6838,-0.684,-0.6843,-0.6847,-0.6845,-0.6814,-0.6838,-0.6837,-0.6837,-0.6837,-0.6837,-0.6933,-0.6934,-0.6926,-0.6922,-0.6917,-0.6913,-0.6912,-0.6905,-0.6902,-0.6897,-0.689,-0.6888,-0.6881,-0.6873,-0.6869,-0.6868,-0.6863,-0.6865,-0.6866,-0.6866,-0.6868,-0.6847,-0.6867,-0.6867,-0.6867,-0.6867,-0.6867,0,-0.6956,-0.695,-0.6948,-0.694,-0.6938,-0.6929,-0.6923,-0.6922,-0.692,-0.6914,-0.6911,-0.6908,-0.6905,-0.6896,-0.6893,-0.6893,-0.6889,-0.6893,-0.6893,-0.6892,-0.6873,-0.6872,-0.6896,-0.6896,-0.6896,-0.6896,-0.6896,-0.6896,-0.6968,-0.6969,-0.6963,-0.6961,-0.6955,-0.6953,-0.695,-0.6946,-0.6941,-0.6939,-0.6936,-0.693,-0.6923,-0.6918,-0.6915,-0.6913,-0.6912,-0.6917,-0.6913,-0.6896,-0.6893,-0.689,-0.6889,-0.6917,-0.6917,-0.6932,-0.6933,-0.6933]},{"header":{"parameterUnit":"m.s-1","parameterCategory":1,"la1":30.2991,"la2":30.254,"lo1":-89.0895,"lo2":-89.0444,"dy":0.0017,"dx":0.0017,"nx":28,"ny":28,"refTime":"2024-11-26T09:00:00:Z","depth":0,"parameterNumber":3,"parameterNumberName":"V-component_of_WINDS"},"data":[0,0,0,0,0,0,0,0,0,0,0,0,0,0,0,0,0,0,0,0,0,0,0,0,0,0,0,0,0,0,0,0,0,0,0,0,0,0,0,0,0,0,0,0,0,0,0,0,0,0,0,0,0,0,0,0,0,0,-0.8738,-0.8738,0,-0.8668,-0.8667,-0.8666,-0.8648,-0.8648,-0.8648,-0.8649,-0.8572,-0.8569,-0.8567,0,0,0,0,0,0,0,0,0,0,0,0,0,-0.8851,-0.8849,-0.8738,-0.8737,-0.8737,-0.8668,-0.8667,-0.8666,-0.8647,-0.8648,-0.8649,-0.8649,-0.8573,-0.857,-0.8567,0,0,0,0,0,0,0,0,0,0,0,0,0,-0.8793,-0.8849,-0.8739,-0.8719,-0.8717,-0.8668,-0.8667,-0.8666,-0.8647,-0.8648,-0.8649,-0.8649,-0.8574,-0.857,-0.8566,-0.8531,0,0,-0.8555,-0.8554,0,0,0,0,0,0,0,0,-0.8797,-0.8789,-0.8723,-0.872,-0.8718,-0.8667,-0.8679,-0.862,-0.8647,-0.8674,-0.8649,-0.865,-0.8603,-0.8597,-0.8582,-0.8527,-0.8524,-0.8555,-0.8553,-0.8551,-0.855,0,0,0,0,0,0,0,-0.8801,-0.8792,-0.871,-0.8722,-0.8719,-0.8712,-0.8705,-0.8667,-0.8635,-0.8671,-0.867,-0.8662,-0.8601,-0.8586,-0.858,-0.8523,-0.8555,-0.8552,-0.8549,-0.8548,-0.8433,-0.8432,0,0,0,0,0,0,-0.8809,-0.8796,-0.8713,-0.8708,-0.876,-0.871,-0.8701,-0.8683,-0.8636,-0.8629,-0.8662,-0.8661,-0.8591,-0.8584,-0.8577,-0.8531,-0.8551,-0.8548,-0.8545,-0.8434,-0.8433,-0.8432,0,0,0,0,0,0,-0.8811,-0.8802,-0.8715,-0.8752,-0.874,-0.8707,-0.8686,-0.8681,-0.8665,-0.8628,-0.8622,-0.8652,-0.8592,-0.8582,-0.8542,-0.8528,-0.8546,-0.8543,-0.8435,-0.8434,-0.8433,-0.844,0,0,0,0,0,0,-0.8815,-0.8803,-0.879,-0.8751,-0.8738,-0.8683,-0.8685,-0.8679,-0.8659,-0.8659,-0.8617,-0.8611,-0.8591,-0.8548,-0.8539,-0.8523,-0.854,-0.8436,-0.8434,-0.8433,-0.844,-0.8439,-0.8437,0,0,0,0,0,-0.8819,-0.8794,-0.879,-0.878,-0.8722,-0.8683,-0.8675,-0.8654,-0.8658,-0.8644,-0.8621,-0.8612,-0.8532,-0.8544,-0.8533,-0.8517,-0.8437,-0.8435,-0.8433,-0.8441,-0.8439,-0.8437,0,0,0,0,0,0,-0.883,-0.8789,-0.8783,-0.8746,-0.8718,-0.868,-0.8661,-0.8653,-0.8622,-0.8623,-0.8597,-0.8588,-0.8549,-0.8529,-0.8544,-0.8479,-0.8484,-0.848,-0.8494,-0.8491,-0.849,-0.8495,-0.8537,0,0,0,0,0,-0.8828,-0.8802,-0.8766,-0.8736,-0.8723,-0.8695,-0.8677,-0.8663,-0.8633,-0.8621,-0.8594,-0.8564,-0.8531,-0.851,-0.8479,-0.8438,-0.8427,-0.8421,-0.8419,-0.8418,-0.8415,-0.839,-0.8386,-0.8426,-0.8426,-0.8426,0,0,-0.8824,-0.8798,-0.8782,-0.8738,-0.8715,-0.8686,-0.8685,-0.8654,-0.8632,-0.8616,-0.8576,-0.8556,-0.852,-0.8479,-0.846,-0.8461,-0.8402,-0.8416,-0.8415,-0.8412,-0.8388,-0.8384,-0.8381,-0.8425,-0.8425,-0.8425,0,0,-0.8801,-0.878,-0.8752,-0.8729,-0.8695,-0.8677,-0.867,-0.8633,-0.8619,-0.858,-0.8567,-0.8539,-0.8484,-0.8459,-0.8439,-0.8406,-0.8397,-0.8396,-0.8388,-0.8364,-0.8361,-0.8358,-0.8345,-0.8341,-0.8393,-0.8393,-0.8393,0,-0.88,-0.8757,-0.8738,-0.8709,-0.8689,-0.8674,-0.8645,-0.8623,-0.858,-0.8565,-0.8568,-0.8499,-0.8473,-0.8426,-0.8418,-0.8403,-0.8393,-0.8401,-0.8363,-0.836,-0.8357,-0.8344,-0.834,-0.8393,-0.8393,-0.8393,-0.8393,0,-0.8756,-0.8727,-0.8708,-0.8669,-0.8647,-0.8617,-0.8592,-0.8571,-0.856,-0.8541,-0.85,-0.8469,-0.8431,-0.8419,-0.8407,-0.8369,-0.8371,-0.8369,-0.8373,-0.8354,-0.8341,-0.8336,-0.8393,-0.8393,-0.8393,-0.8393,0,0,-0.8738,-0.8689,-0.8682,-0.8663,-0.8625,-0.86,-0.857,-0.8534,-0.8516,-0.8486,-0.8458,-0.8412,-0.841,-0.8387,-0.8372,-0.8352,-0.8326,-0.8352,-0.8351,-0.8347,-0.8281,-0.8282,-0.8277,-0.8321,-0.832,-0.8319,-0.8284,0,-0.8709,-0.8656,-0.8638,-0.8592,-0.8564,-0.855,-0.8523,-0.8495,-0.8476,-0.8448,-0.8426,-0.8393,-0.8394,-0.838,-0.8359,-0.8334,-0.8313,-0.8337,-0.8292,-0.8291,-0.8301,-0.8271,-0.8272,-0.824,-0.8279,-0.8278,-0.8277,0,-0.8669,-0.8641,-0.8593,-0.8557,-0.8545,-0.8521,-0.8486,-0.846,-0.8427,-0.8414,-0.8389,-0.8376,-0.8341,-0.8348,-0.8299,-0.8316,-0.8296,-0.8282,-0.828,-0.8274,-0.8282,-0.8262,-0.823,-0.8224,-0.827,-0.827,-0.8271,0,-0.8659,-0.8608,-0.8573,-0.8558,-0.8516,-0.8499,-0.848,-0.8449,-0.8428,-0.8397,-0.8382,-0.8347,-0.8327,-0.8299,-0.8276,-0.8284,-0.8228,-0.8234,-0.8215,-0.8216,-0.8203,-0.8204,-0.8165,-0.8193,-0.8193,-0.8193,-0.8193,0,-0.8628,-0.8599,-0.8568,-0.8546,-0.8513,-0.8492,-0.8458,-0.8438,-0.841,-0.8383,-0.8368,-0.8342,-0.8314,-0.8284,-0.8265,-0.8226,-0.8218,-0.8205,-0.82,-0.8206,-0.8207,-0.8192,-0.8193,-0.8192,-0.8192,-0.8192,-0.8193,0,-0.8611,-0.8589,-0.8549,-0.8513,-0.8503,-0.848,-0.8448,-0.8425,-0.8406,-0.8371,-0.8362,-0.833,-0.8294,-0.8269,-0.8222,-0.8209,-0.8167,-0.8163,-0.8178,-0.8175,-0.8158,-0.8159,-0.8107,-0.8098,-0.8133,-0.8133,-0.8133,0,-0.8592,-0.857,-0.8531,-0.8513,-0.8495,-0.8465,-0.8444,-0.8422,-0.84,-0.8361,-0.8343,-0.8306,-0.8275,-0.8218,-0.8189,-0.8153,-0.8147,-0.8131,-0.8141,-0.8147,-0.8145,-0.8146,-0.8143,-0.8129,-0.8129,-0.8129,-0.8129,0,-0.8561,-0.8551,-0.8523,-0.849,-0.8466,-0.8438,-0.8411,-0.8396,-0.8368,-0.8344,-0.8308,-0.8284,-0.8237,-0.82,-0.8161,-0.8139,-0.8128,-0.8126,-0.8119,-0.8124,-0.8133,-0.8127,-0.8172,-0.8127,-0.8127,-0.8127,-0.8127,-0.8127,-0.8541,-0.852,-0.849,-0.8458,-0.8435,-0.841,-0.8387,-0.8365,-0.8335,-0.8295,-0.8284,-0.8246,-0.8212,-0.8159,-0.8137,-0.8106,-0.8106,-0.8097,-0.8095,-0.8092,-0.8092,-0.814,-0.8098,-0.8098,-0.8098,-0.8098,-0.8098,0,-0.8508,-0.8488,-0.8459,-0.8422,-0.8396,-0.8391,-0.8359,-0.8338,-0.8305,-0.8276,-0.8246,-0.8204,-0.8168,-0.8137,-0.8099,-0.808,-0.8074,-0.807,-0.8071,-0.8066,-0.8094,-0.8103,-0.8076,-0.8076,-0.8076,-0.8076,-0.8076,-0.8076,-0.8488,-0.8452,-0.8438,-0.839,-0.837,-0.8334,-0.8316,-0.8292,-0.8268,-0.8222,-0.8193,-0.8174,-0.8143,-0.8103,-0.8069,-0.8061,-0.8047,-0.8044,-0.8035,-0.8061,-0.8064,-0.8066,-0.8074,-0.8042,-0.8042,-0.8009,-0.8008,-0.8008]}]]